CW5049 Weather Reports


Display with metric or nautical units.
time (UTC)temp
F
wind
direction
speed
MPH
gust
MPH
rain 1hr
in
rain 24hr
in
rain mn
in
humidity
%
barometer
mb
20181216053208 48 126 4.0 18.0 0.00 0.00 0.03 52 1010.5
20181216052708 48 74 2.0 18.0 0.00 0.00 0.03 52 1011.0
20181216052208 48 163 2.0 11.0 0.00 0.00 0.03 51 1011.0
20181216051708 48 129 2.0 8.0 0.00 0.00 0.03 53 1011.0
20181216051201 48 84 3.0 8.0 0.00 0.00 0.03 52 1011.1
20181216050705 47 115 2.0 10.0 0.00 0.00 0.03 53 1011.1
20181216050130 47 125 2.0 7.0 0.00 0.00 0.03 54 1011.1
20181216045628 47 78 2.0 7.0 0.00 0.00 0.03 53 1011.1
20181216045128 47 82 2.0 9.0 0.00 0.00 0.03 53 1011.1
20181216044625 48 74 2.0 9.0 0.00 0.00 0.03 53 1011.1
20181216044126 48 49 2.0 8.0 0.00 0.00 0.03 53 1011.1
20181216043627 48 78 3.0 8.0 0.00 0.00 0.03 52 1011.1
20181216043122 48 98 2.0 7.0 0.00 0.00 0.03 51 1011.1
20181216042623 48 69 1.0 6.0 0.00 0.00 0.03 51 1011.1
20181216042123 48 106 1.0 5.0 0.00 0.00 0.03 51 1011.1
20181216041623 48 107 1.0 4.0 0.00 0.00 0.03 49 1011.1
20181216041123 48 107 0.0 2.0 0.00 0.00 0.03 49 1011.1
20181216040624 48 228 1.0 4.0 0.00 0.00 0.03 48 1011.1
20181216040055 48 228 1.0 4.0 0.00 0.00 0.03 48 1011.1
20181216035555 48 228 2.0 5.0 0.00 0.00 0.03 47 1011.1
20181216035016 49 240 2.0 7.0 0.00 0.00 0.03 47 1011.1
20181216034516 49 136 4.0 12.0 0.00 0.00 0.03 47 1011.2
20181216034001 49 133 5.0 12.0 0.00 0.00 0.03 46 1011.1
20181216033502 49 165 5.0 13.0 0.00 0.00 0.03 45 1011.1
20181216033003 49 41 5.0 13.0 0.00 0.00 0.03 45 1011.1
20181216032503 49 167 5.0 4.0 0.00 0.00 0.03 46 1010.6
20181216031318 49 132 6.0 18.0 0.00 0.01 0.03 47 1010.6
20181216030817 48 65 6.0 18.0 0.00 0.01 0.03 49 1010.5
20181216030314 48 153 7.0 14.0 0.00 0.01 0.03 50 1010.5
20181216025814 48 74 6.0 13.0 0.00 0.01 0.03 50 1010.1
20181216025315 48 151 5.0 13.0 0.00 0.01 0.03 49 1010.1
20181216024812 47 76 4.0 9.0 0.00 0.01 0.03 52 1010.1
20181216024308 47 130 4.0 12.0 0.00 0.01 0.03 52 1010.1
20181216023808 47 157 5.0 15.0 0.00 0.01 0.03 52 1010.1
20181216023305 48 113 5.0 15.0 0.00 0.01 0.03 52 1010.1
20181216022803 48 159 5.0 18.0 0.00 0.01 0.03 50 1009.8
20181216022303 48 60 5.0 18.0 0.00 0.01 0.03 50 1009.8
20181216021802 47 94 4.0 15.0 0.01 0.01 0.03 50 1009.8
20181216021301 47 125 2.0 8.0 0.01 0.01 0.03 52 1009.7
20181216020802 47 148 0.0 7.0 0.01 0.01 0.03 52 1009.7
20181216020302 47 103 0.0 1.0 0.01 0.01 0.03 52 1009.7
20181216015732 47 103 1.0 5.0 0.01 0.01 0.03 52 1010.1
20181216015216 48 103 1.0 5.0 0.01 0.01 0.03 51 1010.1
20181216014708 48 59 1.0 4.0 0.01 0.01 0.03 51 1010.1
20181216014205 48 0 1.0 3.0 0.01 0.01 0.03 50 1010.6
20181216013654 48 80 2.0 7.0 0.01 0.01 0.03 50 1010.6
20181216013155 48 53 3.0 7.0 0.01 0.01 0.03 49 1010.6
20181216012642 47 69 3.0 11.0 0.01 0.01 0.03 50 1012.1
20181216012142 47 143 3.0 11.0 0.01 0.01 0.03 50 1012.1
20181216011641 47 78 2.0 6.0 0.00 0.00 0.02 51 1012.0
20181216011143 47 105 2.0 7.0 0.00 0.00 0.02 53 1012.1
20181216010637 47 111 2.0 7.0 0.00 0.00 0.02 52 1012.1
20181216010137 47 276 1.0 4.0 0.00 0.00 0.02 52 1012.1
20181216005636 47 202 1.0 6.0 0.00 0.00 0.02 54 1011.5
20181216005130 47 113 1.0 6.0 0.00 0.00 0.02 53 1011.5
20181216004622 47 75 2.0 7.0 0.00 0.00 0.02 52 1011.5
20181216004118 47 46 2.0 7.0 0.00 0.00 0.02 52 1011.5
20181216003617 47 163 2.0 7.0 0.00 0.00 0.02 52 1011.5
20181216003119 47 85 1.0 6.0 0.00 0.00 0.02 52 1011.5
20181216002617 47 73 1.0 6.0 0.00 0.00 0.02 52 1011.3
20181216002117 47 65 1.0 6.0 0.00 0.00 0.02 54 1011.4
20181216001618 47 65 2.0 6.0 0.00 0.00 0.02 52 1011.4
20181216001112 47 89 2.0 5.0 0.00 0.00 0.02 52 1011.8
20181216000608 47 154 1.0 5.0 0.00 0.00 0.02 53 1011.8
20181216000059 47 43 1.0 9.0 0.00 0.00 0.02 53 1011.8
20181215235601 47 74 3.0 11.0 0.00 0.00 0.02 52 1012.0
20181215235051 47 140 2.0 8.0 0.00 0.00 0.02 53 1011.9
20181215234552 47 76 2.0 6.0 0.00 0.00 0.02 53 1011.9
20181215234050 47 145 1.0 6.0 0.00 0.00 0.02 53 1012.1
20181215233539 47 76 2.0 8.0 0.00 0.00 0.02 53 1012.1
20181215233039 47 98 2.0 8.0 0.00 0.00 0.02 53 1012.1
20181215232537 47 88 1.0 6.0 0.00 0.00 0.02 53 1012.2
20181215232037 47 124 1.0 6.0 0.00 0.00 0.02 53 1012.2
20181215231537 47 89 1.0 6.0 0.00 0.00 0.02 53 1012.2
20181215231026 47 80 1.0 6.0 0.00 0.00 0.02 54 1012.2
20181215230518 48 126 0.0 1.0 0.00 0.00 0.02 54 1012.2
20181215230013 48 126 0.0 1.0 0.00 0.00 0.02 53 1012.2
20181215225510 48 126 0.0 1.0 0.00 0.00 0.02 56 1012.2
20181215224937 48 126 0.0 4.0 0.00 0.00 0.02 52 1012.2
20181215224434 48 126 0.0 4.0 0.00 0.00 0.02 52 1012.2
20181215223931 48 146 0.0 2.0 0.00 0.00 0.02 53 1012.1
20181215223428 48 146 0.0 7.0 0.00 0.00 0.02 53 1012.1
20181215222922 48 146 0.0 7.0 0.00 0.00 0.02 52 1012.1
20181215222420 48 96 0.0 1.0 0.00 0.00 0.02 52 1012.0
20181215221918 49 96 1.0 6.0 0.00 0.00 0.02 54 1012.0
20181215221416 49 96 1.0 6.0 0.00 0.00 0.02 52 1012.0
20181215220912 49 60 2.0 7.0 0.00 0.00 0.02 51 1012.0
20181215220404 49 104 2.0 8.0 0.00 0.00 0.02 50 1012.0
20181215215858 49 120 2.0 8.0 0.00 0.00 0.02 49 1012.0
20181215215358 49 115 2.0 11.0 0.00 0.00 0.02 50 1012.2
20181215214856 49 84 3.0 11.0 0.00 0.00 0.02 49 1012.2
20181215214352 49 22 3.0 14.0 0.00 0.00 0.02 51 1012.2
20181215213845 49 64 3.0 14.0 0.00 0.00 0.02 50 1012.1
20181215213338 49 80 4.0 13.0 0.00 0.00 0.02 50 1012.1
20181215212824 48 103 5.0 13.0 0.00 0.00 0.02 51 1012.1
20181215212323 48 92 4.0 11.0 0.00 0.00 0.02 50 1011.9
20181215211823 48 76 3.0 9.0 0.00 0.00 0.02 52 1011.9
20181215211323 48 67 3.0 12.0 0.00 0.00 0.02 53 1011.9
20181215210824 48 112 2.0 12.0 0.00 0.00 0.02 52 1012.1
20181215210319 48 119 1.0 6.0 0.00 0.00 0.02 54 1012.1
20181215205818 48 139 2.0 8.0 0.00 0.00 0.02 55 1012.1
20181215205318 48 68 2.0 8.0 0.00 0.00 0.02 54 1012.0
20181215204810 48 335 2.0 6.0 0.00 0.00 0.02 55 1012.0
20181215204310 48 88 2.0 6.0 0.00 0.00 0.02 54 1012.6
20181215203808 48 140 0.0 6.0 0.00 0.00 0.02 55 1012.6
20181215203300 48 94 0.0 6.0 0.00 0.00 0.02 58 1012.6
20181215202801 48 75 0.0 2.0 0.00 0.00 0.02 58 1013.1
20181215202238 48 75 1.0 3.0 0.00 0.00 0.02 57 1013.1
20181215201738 48 75 1.0 3.0 0.00 0.00 0.02 55 1013.0
20181215201234 48 76 1.0 10.0 0.00 0.00 0.02 57 1013.7
20181215200733 48 76 2.0 10.0 0.00 0.00 0.02 55 1013.7
20181215200218 48 99 2.0 9.0 0.00 0.00 0.02 54 1013.7
20181215195717 48 28 2.0 7.0 0.00 0.00 0.02 53 1014.0
20181215195218 48 88 2.0 7.0 0.00 0.00 0.02 54 1014.0
20181215194716 48 74 2.0 7.0 0.00 0.00 0.02 53 1014.0
20181215194215 48 78 4.0 9.0 0.00 0.00 0.02 53 1014.2
20181215193716 48 78 4.0 13.0 0.00 0.00 0.02 51 1014.2
20181215193213 48 88 4.0 13.0 0.00 0.00 0.02 52 1014.2
20181215192712 48 105 4.0 12.0 0.00 0.00 0.02 52 1014.7
20181215192212 48 53 4.0 11.0 0.00 0.00 0.02 53 1014.7
20181215191708 47 75 4.0 11.0 0.00 0.00 0.02 53 1014.7
20181215191210 47 100 4.0 12.0 0.00 0.00 0.02 53 1014.8
20181215190711 47 71 4.0 12.0 0.00 0.00 0.02 54 1014.8
20181215190210 47 98 3.0 12.0 0.00 0.00 0.02 54 1014.8
20181215185709 47 107 4.0 12.0 0.00 0.00 0.02 54 1014.9
20181215185210 47 129 5.0 12.0 0.00 0.00 0.02 54 1014.9